Location: Zagreb
(45.8000°N, 16.0000°E)
Time: 02:38:10
(UTC+02:00)

Transit 2A Rocket - Pass Details

Date: 23 January 2022
Orbit: 592 x 909 km, 66.7° (Epoch: 26 May)

Event Time Altitude Azimuth Distance (km) Brightness Sun altitude
Rises 02:41:49 0° 330° (NNW) 3,489 - -48.9°
Reaches altitude 10° 02:44:44 10° 341° (NNW) 2,510 - -48.4°
Maximum altitude 02:49:46 30° 41° (NE) 1,455 - -47.6°
Drops below altitude 10° 02:54:27 10° 102° (ESE) 2,327 - -46.9°
Exits shadow 02:56:38 - 112° (ESE) 3,049 8.5 -46.5°
Sets 02:57:03 0° 113° (ESE) 3,195 8.6 -46.5°
